GW3247 Weather Reports


Display with metric or nautical units.
time (UTC)temp
F
wind
direction
speed
MPH
gust
MPH
rain 1hr
in
rain 24hr
in
rain mn
in
humidity
%
barometer
mb
20260507060019 47 269 1.0 4.0 0.00 0.00 0.00 82 1015.7
20260507054507 46 253 1.0 5.0 0.00 0.00 0.00 84 1015.6
20260507053005 45 250 1.0 4.0 0.00 0.00 0.00 86 1015.5
20260507051501 44 245 1.0 3.0 0.00 0.00 0.00 88 1015.3
20260507050058 42 263 1.0 4.0 0.00 0.00 0.00 89 1015.3
20260507044615 41 240 2.0 3.0 0.00 0.00 0.00 89 1015.2
20260507043055 40 226 2.0 4.0 0.00 0.00 0.00 89 1015.0
20260507041554 39 226 2.0 4.0 0.00 0.00 0.00 89 1015.1
20260507040051 39 226 2.0 4.0 0.00 0.00 0.00 88 1014.9
20260507034554 40 236 2.0 4.0 0.00 0.00 0.00 89 1014.9
20260507033101 39 239 2.0 5.0 0.00 0.00 0.00 89 1014.8
20260507031558 39 237 2.0 4.0 0.00 0.00 0.00 89 1014.7
20260507030104 38 227 3.0 4.0 0.00 0.00 0.00 87 1014.6
20260507024602 40 239 3.0 4.0 0.00 0.00 0.00 87 1014.5
20260507023040 39 241 2.0 4.0 0.00 0.00 0.00 87 1014.5
20260507021545 40 233 0.0 3.0 0.00 0.00 0.00 87 1014.4
20260507020049 40 229 0.0 2.0 0.00 0.00 0.00 86 1014.4
20260507014543 40 247 0.0 1.0 0.00 0.00 0.00 87 1014.2
20260507013038 40 257 0.0 1.0 0.00 0.00 0.00 86 1014.1
20260507011535 41 281 0.0 1.0 0.00 0.00 0.00 86 1014.2
20260507010035 41 282 0.0 1.0 0.00 0.00 0.00 85 1014.2
20260507004526 41 301 0.0 1.0 0.00 0.00 0.00 84 1014.1
20260507003023 42 278 0.0 3.0 0.00 0.00 0.00 84 1014.1
20260507001525 43 214 1.0 5.0 0.00 0.00 0.00 84 1014.1
20260507000018 43 224 2.0 5.0 0.00 0.00 0.00 84 1014.0
20260506234517 43 214 3.0 6.0 0.00 0.00 0.00 83 1013.8
20260506233015 43 229 3.0 6.0 0.00 0.00 0.00 82 1013.9
20260506231512 43 234 3.0 6.0 0.00 0.00 0.00 81 1013.9
20260506230009 43 245 3.0 5.0 0.00 0.00 0.00 80 1013.8
20260506224507 43 239 2.0 5.0 0.00 0.00 0.00 79 1013.9
20260506223004 44 223 2.0 4.0 0.00 0.00 0.00 79 1013.8
20260506221501 44 255 2.0 6.0 0.00 0.00 0.00 78 1013.7
20260506214558 44 236 2.0 4.0 0.00 0.00 0.00 76 1013.6
20260506213055 45 259 1.0 4.0 0.00 0.00 0.00 75 1013.6
20260506211552 45 218 0.0 3.0 0.00 0.00 0.00 74 1013.5
20260506210052 46 253 1.0 3.0 0.00 0.00 0.00 73 1013.4
20260506204550 47 265 1.0 3.0 0.00 0.00 0.00 71 1013.3
20260506203048 47 244 2.0 6.0 0.00 0.00 0.00 69 1013.2
20260506201547 48 235 2.0 4.0 0.00 0.00 0.00 65 1013.0
20260506200047 48 236 3.0 4.0 0.00 0.00 0.00 62 1013.0
20260506194547 48 209 1.0 4.0 0.00 0.00 0.00 59 1012.9
20260506193045 49 218 0.0 3.0 0.00 0.00 0.00 57 1012.9
20260506191544 50 225 0.0 3.0 0.00 0.00 0.00 56 1012.8
20260506190044 51 217 1.0 3.0 0.00 0.00 0.00 54 1012.8
20260506184547 51 226 2.0 4.0 0.00 0.00 0.00 52 1012.5
20260506183039 52 212 2.0 6.0 0.00 0.00 0.00 51 1012.3
20260506181537 53 227 4.0 6.0 0.00 0.00 0.00 48 1011.8
20260506180037 54 196 5.0 10.0 0.00 0.00 0.00 46 1011.8
20260506174536 54 214 3.0 8.0 0.00 0.00 0.00 46 1011.7
20260506173050 54 245 5.0 8.0 0.00 0.00 0.00 45 1011.7
20260506171533 54 226 3.0 9.0 0.00 0.00 0.00 44 1011.6
20260506170036 54 241 4.0 10.0 0.00 0.00 0.00 43 1011.5
20260506164534 55 224 6.0 11.0 0.00 0.00 0.00 40 1011.5
20260506163036 55 217 5.0 12.0 0.00 0.00 0.00 39 1011.4
20260506161528 55 179 2.0 8.0 0.00 0.00 0.00 43 1011.5
20260506160026 54 268 2.0 6.0 0.00 0.00 0.00 43 1011.5
20260506154523 53 68 0.0 3.0 0.00 0.00 0.00 65 1011.6
20260506153022 53 65 1.0 6.0 0.00 0.00 0.00 68 1011.5
20260506151525 53 30 3.0 10.0 0.00 0.00 0.00 67 1011.5
20260506150019 52 59 6.0 17.0 0.00 0.00 0.00 68 1011.5
20260506144518 52 46 10.0 12.0 0.00 0.00 0.00 70 1011.4
20260506143024 52 18 8.0 12.0 0.00 0.00 0.00 72 1011.3
20260506141517 52 24 8.0 11.0 0.00 0.00 0.00 72 1011.4
20260506140017 52 28 7.0 11.0 0.00 0.00 0.00 70 1011.2
20260506134516 52 44 4.0 13.0 0.00 0.00 0.00 70 1011.2
20260506133016 52 38 7.0 13.0 0.00 0.00 0.00 71 1011.2
20260506131527 52 42 11.0 14.0 0.00 0.00 0.00 72 1010.9
20260506130016 52 30 11.0 15.0 0.00 0.00 0.00 72 1010.9
20260506124513 51 37 12.0 14.0 0.00 0.00 0.00 72 1011.0
20260506123013 52 35 11.0 13.0 0.00 0.00 0.00 72 1010.9
20260506121512 52 32 9.0 11.0 0.00 0.00 0.00 70 1010.9
20260506120015 53 37 6.0 8.0 0.00 0.00 0.00 68 1011.0
20260506114509 53 40 5.0 6.0 0.00 0.00 0.00 67 1011.1
20260506113006 53 39 3.0 5.0 0.00 0.00 0.00 66 1011.0
20260506111600 53 60 2.0 6.0 0.00 0.00 0.00 68 1011.0
20260506110103 52 35 5.0 8.0 0.00 0.00 0.00 68 1011.2
20260506104557 51 51 6.0 7.0 0.00 0.00 0.00 69 1011.2
20260506103058 51 31 7.0 10.0 0.00 0.00 0.00 69 1011.2
20260506101559 50 45 7.0 10.0 0.00 0.00 0.00 69 1011.2
20260506100109 50 10 8.0 11.0 0.00 0.00 0.00 71 1011.1
20260506094551 50 26 7.0 9.0 0.00 0.00 0.00 69 1011.1
20260506093051 50 41 6.0 9.0 0.00 0.00 0.00 68 1011.2
20260506091548 50 31 5.0 7.0 0.00 0.00 0.00 66 1011.1
20260506090046 50 34 5.0 7.0 0.00 0.00 0.00 66 1011.0
20260506084607 49 30 3.0 5.0 0.00 0.00 0.00 66 1011.1
20260506083044 49 32 3.0 6.0 0.00 0.00 0.00 63 1011.0
20260506081549 48 53 1.0 3.0 0.00 0.00 0.00 64 1010.9
20260506073045 48 109 2.0 6.0 0.00 0.00 0.00 65 1011.1
20260506071538 47 109 4.0 7.0 0.00 0.00 0.00 63 1011.1
20260506061529 46 86 2.0 5.0 0.00 0.00 0.00 59 1011.3